Precipitable_Water
0.45 0.45 0.45 0.45 0.46 0.50 0.57 0.65 0.70 0.68 0.66 0.61 0.62 0.58 0.46 0.42 0.42 0.41 0.35 0.47 0.46 0.47 0.62 0.70 0.78 0.84 0.82 0.75 0.69 0.66 0.62 0.72 0.64 0.70 0.77 0.80 0.75 0.84 0.86 0.79 0.81 0.83 0.77 0.84 0.92
0.40 0.39 0.38 0.39 0.37 0.36 0.40 0.52 0.67 0.68 0.67 0.64 0.61 0.60 0.48 0.42 0.36 0.37 0.48 0.50 0.44 0.51 0.58 0.63 0.64 0.69 0.66 0.61 0.67 0.58 0.55 0.78 0.70 0.69 0.67 0.80 0.80 0.84 0.74 0.77 0.77 0.79 0.81 0.86 0.85
0.36 0.35 0.34 0.36 0.35 0.34 0.33 0.34 0.53 0.68 0.69 0.66 0.64 0.60 0.53 0.43 0.33 0.33 0.47 0.48 0.50 0.61 0.70 0.71 0.71 0.62 0.51 0.58 0.63 0.69 0.63 0.74 0.74 0.73 0.70 0.72 0.74 0.85 0.74 0.74 0.82 0.82 0.83 0.88 0.80
0.36 0.34 0.33 0.32 0.33 0.33 0.31 0.33 0.38 0.51 0.69 0.70 0.68 0.62 0.54 0.40 0.25 0.47 0.50 0.48 0.57 0.68 0.73 0.63 0.53 0.47 0.48 0.54 0.68 0.51 0.76 0.70 0.78 0.73 0.68 0.65 0.75 0.74 0.75 0.92 0.94 0.97 0.97 0.97 0.84
0.32 0.31 0.30 0.30 0.30 0.30 0.30 0.35 0.41 0.44 0.48 0.67 0.67 0.66 0.50 0.34 0.41 0.53 0.51 0.53 0.59 0.68 0.64 0.56 0.49 0.49 0.48 0.59 0.65 0.58 0.74 0.75 0.75 0.74 0.71 0.70 0.68 0.68 0.75 0.92 0.88 0.97 0.99 0.95 0.93
0.31 0.29 0.27 0.26 0.25 0.25 0.33 0.41 0.41 0.43 0.44 0.54 0.62 0.61 0.43 0.39 0.47 0.51 0.51 0.52 0.60 0.62 0.64 0.60 0.54 0.58 0.56 0.57 0.59 0.84 0.70 0.75 0.73 0.73 0.71 0.68 0.69 0.69 0.77 0.89 0.86 0.93 0.95 0.96 0.92
0.31 0.29 0.27 0.25 0.23 0.23 0.35 0.39 0.41 0.43 0.42 0.42 0.58 0.55 0.38 0.39 0.55 0.54 0.52 0.51 0.61 0.64 0.67 0.66 0.65 0.57 0.69 0.62 0.71 0.69 0.60 0.74 0.69 0.70 0.69 0.68 0.66 0.70 0.86 0.79 0.82 0.88 0.96 0.98 0.95
0.33 0.30 0.27 0.25 0.23 0.26 0.40 0.39 0.38 0.37 0.42 0.39 0.50 0.54 0.32 0.33 0.46 0.52 0.53 0.50 0.56 0.60 0.68 0.73 0.67 0.59 0.58 0.78 0.70 0.63 0.64 0.52 0.82 0.77 0.63 0.59 0.54 0.80 1.00 0.81 0.82 0.87 0.93 0.97 0.99
0.36 0.33 0.30 0.27 0.25 0.34 0.43 0.40 0.37 0.38 0.40 0.46 0.34 0.42 0.33 0.27 0.31 0.47 0.52 0.44 0.47 0.50 0.60 0.61 0.64 0.55 0.64 0.60 0.57 0.61 0.51 0.61 0.66 0.71 0.59 0.62 0.54 0.86 1.13 0.79 0.82 0.88 0.94 0.98 1.00
0.38 0.35 0.32 0.29 0.27 0.44 0.46 0.43 0.42 0.42 0.39 0.39 0.36 0.27 0.30 0.22 0.24 0.38 0.53 0.46 0.44 0.46 0.50 0.54 0.55 0.50 0.52 0.55 0.43 0.59 0.60 0.65 0.55 0.52 0.59 0.52 0.59 0.63 0.81 0.75 0.77 0.90 0.95 0.99 1.01
0.40 0.37 0.34 0.31 0.31 0.52 0.48 0.51 0.38 0.34 0.30 0.24 0.25 0.23 0.26 0.27 0.33 0.34 0.44 0.46 0.48 0.45 0.36 0.47 0.44 0.43 0.48 0.56 0.52 0.52 0.54 0.44 0.44 0.49 0.49 0.49 0.50 0.57 0.76 0.87 0.76 0.85 0.90 0.92 0.97
0.42 0.39 0.35 0.32 0.39 0.58 0.59 0.45 0.40 0.54 0.25 0.29 0.27 0.26 0.29 0.32 0.22 0.24 0.43 0.36 0.40 0.38 0.44 0.39 0.37 0.46 0.53 0.50 0.56 0.61 0.44 0.45 0.46 0.46 0.48 0.40 0.43 0.62 0.71 0.82 0.79 0.81 0.85 0.88 0.92
0.43 0.40 0.37 0.32 0.43 0.60 0.51 0.44 0.60 0.57 0.28 0.27 0.25 0.21 0.22 0.24 0.20 0.22 0.35 0.34 0.36 0.36 0.39 0.38 0.46 0.51 0.43 0.44 0.46 0.42 0.40 0.40 0.39 0.48 0.46 0.42 0.42 0.46 0.59 0.86 0.78 0.79 0.76 0.88 0.94
0.43 0.41 0.39 0.34 0.44 0.49 0.53 0.55 0.70 0.65 0.23 0.24 0.19 0.18 0.25 0.25 0.19 0.25 0.33 0.33 0.33 0.34 0.36 0.37 0.45 0.44 0.49 0.45 0.47 0.43 0.51 0.51 0.45 0.39 0.32 0.48 0.40 0.47 0.53 0.66 0.85 0.75 0.79 0.85 0.95
0.44 0.42 0.40 0.41 0.39 0.39 0.57 0.61 0.75 0.59 0.14 0.23 0.26 0.37 0.24 0.19 0.21 0.18 0.30 0.31 0.31 0.33 0.36 0.33 0.36 0.39 0.45 0.44 0.50 0.42 0.47 0.45 0.43 0.40 0.38 0.36 0.36 0.44 0.48 0.49 0.54 0.73 0.75 0.85 0.94
0.46 0.44 0.42 0.49 0.44 0.43 0.56 0.70 0.62 0.24 0.14 0.19 0.29 0.22 0.21 0.21 0.19 0.22 0.24 0.35 0.37 0.34 0.37 0.34 0.43 0.44 0.45 0.48 0.49 0.49 0.34 0.33 0.38 0.35 0.28 0.33 0.31 0.33 0.39 0.41 0.51 0.63 0.65 0.71 0.85
0.48 0.46 0.44 0.47 0.45 0.49 0.54 0.65 0.28 0.23 0.23 0.19 0.23 0.23 0.21 0.19 0.19 0.20 0.19 0.23 0.25 0.23 0.28 0.38 0.34 0.44 0.45 0.37 0.42 0.34 0.27 0.19 0.25 0.29 0.28 0.35 0.33 0.30 0.36 0.39 0.41 0.40 0.47 0.55 0.62
0.49 0.46 0.53 0.50 0.52 0.54 0.54 0.45 0.26 0.24 0.21 0.32 0.31 0.24 0.21 0.23 0.21 0.19 0.19 0.19 0.26 0.29 0.25 0.25 0.25 0.35 0.42 0.32 0.30 0.36 0.29 0.24 0.21 0.22 0.25 0.36 0.30 0.31 0.39 0.42 0.41 0.41 0.47 0.55 0.61
0.49 0.54 0.53 0.57 0.63 0.59 0.48 0.33 0.29 0.27 0.28 0.28 0.32 0.25 0.22 0.24 0.24 0.22 0.19 0.20 0.23 0.27 0.23 0.24 0.25 0.37 0.39 0.36 0.31 0.27 0.32 0.39 0.30 0.31 0.28 0.28 0.29 0.30 0.34 0.42 0.40 0.44 0.48 0.57 0.69
0.48 0.53 0.53 0.79 0.73 0.56 0.40 0.36 0.38 0.39 0.43 0.39 0.28 0.26 0.23 0.23 0.21 0.23 0.22 0.24 0.21 0.27 0.32 0.28 0.21 0.30 0.33 0.35 0.33 0.30 0.37 0.33 0.31 0.22 0.20 0.24 0.24 0.22 0.32 0.37 0.46 0.44 0.51 0.60 0.69
0.49 0.45 0.75 0.79 0.73 0.46 0.32 0.37 0.44 0.46 0.47 0.37 0.29 0.31 0.28 0.27 0.25 0.23 0.23 0.28 0.26 0.27 0.27 0.27 0.25 0.26 0.29 0.25 0.23 0.29 0.22 0.30 0.33 0.33 0.26 0.23 0.22 0.35 0.34 0.37 0.40 0.47 0.52 0.58 0.67
0.54 0.41 0.84 0.75 0.41 0.40 0.36 0.39 0.41 0.37 0.44 0.44 0.45 0.40 0.34 0.30 0.31 0.25 0.25 0.29 0.35 0.30 0.25 0.28 0.26 0.23 0.26 0.28 0.29 0.27 0.30 0.30 0.26 0.24 0.28 0.28 0.22 0.33 0.39 0.41 0.42 0.47 0.51 0.56 0.61
0.45 0.49 0.80 0.68 0.37 0.36 0.40 0.37 0.36 0.34 0.37 0.38 0.37 0.41 0.46 0.37 0.30 0.32 0.30 0.42 0.36 0.28 0.30 0.30 0.25 0.23 0.24 0.30 0.34 0.24 0.24 0.28 0.31 0.32 0.28 0.26 0.27 0.40 0.43 0.41 0.44 0.45 0.52 0.53 0.55
0.46 0.42 0.63 0.58 0.52 0.42 0.37 0.34 0.34 0.39 0.35 0.36 0.34 0.42 0.41 0.36 0.42 0.39 0.39 0.45 0.42 0.39 0.33 0.37 0.29 0.24 0.21 0.25 0.34 0.30 0.27 0.27 0.28 0.24 0.24 0.25 0.26 0.30 0.39 0.43 0.47 0.51 0.51 0.51 0.53
0.50 0.44 0.53 0.45 0.45 0.46 0.41 0.37 0.32 0.32 0.35 0.38 0.30 0.31 0.30 0.29 0.35 0.38 0.44 0.49 0.43 0.43 0.39 0.36 0.25 0.27 0.30 0.31 0.31 0.28 0.32 0.29 0.27 0.28 0.23 0.26 0.29 0.34 0.37 0.41 0.44 0.48 0.51 0.47 0.49
0.45 0.44 0.54 0.49 0.52 0.48 0.41 0.37 0.33 0.33 0.33 0.32 0.28 0.32 0.28 0.29 0.30 0.30 0.40 0.47 0.45 0.51 0.44 0.44 0.29 0.33 0.31 0.33 0.28 0.24 0.25 0.26 0.26 0.27 0.28 0.26 0.25 0.32 0.34 0.38 0.44 0.44 0.46 0.44 0.48
0.50 0.59 0.52 0.44 0.47 0.44 0.43 0.40 0.38 0.36 0.43 0.44 0.38 0.41 0.36 0.39 0.48 0.50 0.53 0.55 0.54 0.48 0.46 0.45 0.39 0.35 0.27 0.31 0.28 0.23 0.26 0.25 0.25 0.26 0.27 0.25 0.28 0.33 0.31 0.36 0.43 0.43 0.44 0.44 0.47
Wind_Speed
10 9 9 10 11 11 11 11 11 10 10 9 8 7 7 8 9 12 13 10 10 12 11 10 9 7 6 6 5 6 7 1 4 4 1 2 4 3 3 2 4 4 5 4 9
10 10 9 9 9 10 11 11 12 13 12 11 10 9 9 9 12 14 14 13 12 13 12 12 10 8 8 7 5 7 8 3 5 6 7 5 8 4 6 5 5 4 3 6 9
9 9 9 9 10 10 10 11 12 12 13 12 11 11 10 10 13 15 15 14 15 15 13 12 9 10 10 8 7 6 7 4 3 7 8 6 8 6 8 7 8 7 5 7 9
9 9 9 9 10 10 10 10 11 12 12 12 12 12 11 12 11 11 14 15 17 16 14 13 12 11 11 10 8 10 6 7 5 7 8 8 7 8 9 2 3 6 7 8 10
9 10 10 10 10 10 11 11 11 11 12 12 11 12 12 14 13 12 15 15 17 16 15 13 13 12 12 10 9 11 7 8 7 8 8 7 8 9 10 5 6 6 8 9 10
10 9 10 10 11 12 12 11 12 12 12 12 11 11 12 15 12 12 15 16 17 17 16 14 12 11 11 12 11 7 11 9 9 8 8 9 7 9 9 6 6 7 8 9 10
11 11 11 11 12 12 12 12 13 13 13 13 12 11 13 11 11 13 14 16 17 17 16 15 13 13 11 12 12 13 14 14 12 9 10 11 11 12 9 8 8 8 9 9 10
14 13 12 12 12 12 13 13 13 12 12 12 13 13 12 12 11 13 14 16 17 16 16 13 14 14 13 11 12 14 16 14 6 11 10 11 13 11 12 8 9 9 10 10 11
16 15 14 13 13 12 12 12 12 11 11 11 12 13 13 12 15 14 14 14 15 15 15 12 13 14 12 14 15 16 13 9 12 11 11 11 13 8 14 8 10 11 11 12 12
19 18 16 15 15 13 13 11 10 10 10 11 12 12 14 14 15 15 15 12 15 15 15 15 13 14 14 15 14 7 12 11 13 11 11 15 17 15 14 13 14 13 13 14 14
22 20 19 18 16 15 12 12 11 11 14 12 9 11 9 13 14 17 17 15 14 15 17 16 16 17 17 16 16 17 15 16 17 15 13 15 18 17 16 17 14 14 14 15 15
24 23 21 20 18 16 15 13 12 12 13 17 17 15 13 11 14 17 18 17 17 17 17 17 19 18 18 17 13 16 17 18 18 16 14 17 19 17 17 18 15 15 15 15 16
26 25 23 22 20 18 15 14 15 15 16 15 18 18 17 15 16 18 19 20 18 19 18 19 16 17 18 17 16 17 18 17 17 13 15 17 19 18 15 15 14 15 15 16 18
27 26 24 23 21 20 19 17 16 15 17 18 18 18 18 16 17 17 19 21 21 20 20 19 18 17 16 17 17 18 15 16 16 16 14 8 12 17 8 9 20 15 16 18 19
29 27 25 23 23 21 19 18 17 16 16 16 17 16 18 20 11 20 19 22 22 21 18 19 19 17 18 17 16 18 16 16 18 18 17 18 15 16 8 10 11 12 14 16 19
30 28 26 25 25 23 21 19 18 18 20 17 17 18 20 25 19 15 19 21 21 21 21 21 17 18 19 18 18 16 18 18 18 17 18 19 17 16 13 12 9 13 11 14 19
31 30 28 27 24 23 22 21 20 21 18 20 19 18 20 21 24 21 22 23 21 21 21 20 23 19 18 17 16 16 16 16 17 16 16 17 13 15 17 11 12 15 17 17 19
32 31 30 29 26 25 24 23 23 22 28 16 16 19 21 20 23 23 22 24 26 23 19 21 21 22 18 21 18 16 17 15 17 16 18 8 15 9 9 12 14 15 14 15 17
31 31 30 29 28 27 26 27 25 23 19 21 19 21 22 21 17 23 25 23 25 27 24 19 23 13 19 20 21 20 17 16 19 20 18 20 25 23 19 12 13 13 13 13 13
30 30 31 29 28 28 29 32 28 24 21 22 25 22 23 23 22 21 22 22 25 24 26 23 21 21 18 19 20 19 16 16 17 14 20 19 19 16 12 10 9 11 11 10 11
30 29 29 30 29 30 31 32 31 25 25 24 24 22 24 20 23 22 19 17 19 23 24 25 22 21 19 21 22 18 23 21 19 19 18 18 14 8 9 9 10 10 9 10 10
31 30 29 30 30 31 32 32 28 27 27 25 23 23 23 24 22 24 22 19 19 21 22 25 21 25 25 22 22 23 21 23 22 23 20 20 23 17 13 14 15 13 11 11 11
30 30 29 32 30 31 30 32 29 29 28 26 26 25 24 24 22 21 22 19 18 21 19 20 23 23 25 21 20 22 25 24 23 23 25 23 22 15 15 16 15 15 13 13 14
29 28 27 33 32 32 32 31 30 29 28 27 26 24 24 25 24 21 23 21 20 19 21 20 24 25 25 26 21 22 27 25 25 24 24 26 26 24 20 19 18 16 16 15 15
30 29 30 29 33 32 31 28 31 27 30 28 28 28 27 26 26 26 23 20 23 21 22 22 25 26 27 27 25 25 23 25 27 28 28 25 25 22 20 21 19 17 17 17 16
30 27 28 26 30 33 31 32 31 29 27 29 30 28 28 27 26 24 27 23 22 21 23 22 24 25 28 27 28 32 30 28 28 28 29 28 28 25 24 23 21 21 19 19 18
31 28 25 27 28 29 31 30 30 29 26 25 27 25 26 24 23 22 22 23 23 23 23 23 23 24 28 27 28 32 30 31 31 30 28 28 27 25 25 24 23 23 21 20 19
Wind_Direction
269 272 274 271 265 263 261 259 257 256 257 259 258 254 243 232 220 209 212 210 210 200 200 200 209 222 241 260 268 283 281 257 14 18 339 208 231 261 271 255 259 253 288 204 188
270 271 273 274 269 266 263 261 257 254 254 256 256 254 247 237 221 220 215 214 208 201 204 205 214 226 244 255 261 276 286 299 309 317 318 272 255 241 261 244 257 251 257 181 191
270 272 273 274 273 269 269 265 258 255 252 252 254 252 247 236 227 226 216 214 208 203 212 219 231 233 249 251 254 265 288 321 280 311 304 274 257 247 258 247 244 234 208 200 203
271 272 274 274 274 273 271 267 262 256 253 251 250 250 246 224 230 212 217 213 208 209 221 222 228 233 246 246 246 269 265 280 305 300 296 283 263 255 255 298 288 219 214 213 213
273 273 274 275 276 275 273 267 262 258 252 249 249 246 235 225 238 229 214 211 208 213 219 222 231 238 248 248 254 260 261 276 282 285 289 285 263 258 245 255 264 221 220 222 217
274 276 277 278 278 276 271 268 263 257 254 246 244 241 228 237 230 220 213 213 213 216 221 227 234 245 260 252 257 271 267 272 276 281 277 272 262 255 244 245 242 229 226 224 218
270 274 278 282 281 277 273 268 262 257 251 242 238 233 235 230 229 219 217 216 216 219 227 231 242 244 257 256 254 265 265 257 258 268 276 278 257 254 228 233 232 233 228 225 221
267 270 275 279 283 280 274 267 260 254 246 238 232 231 237 229 228 219 217 217 218 222 232 239 240 247 253 264 258 258 256 273 264 257 272 276 289 252 216 224 232 234 231 226 221
263 267 270 275 279 278 280 269 253 246 239 229 227 230 238 229 223 219 218 215 216 221 227 237 238 243 242 252 256 248 264 261 259 256 285 268 277 266 226 254 240 241 235 229 224
260 263 266 270 273 273 273 259 247 238 230 229 235 232 233 230 216 217 215 221 215 221 227 233 237 240 242 246 253 272 267 268 280 284 280 277 263 260 252 253 249 238 237 231 226
258 260 263 266 268 268 263 245 239 234 229 229 229 231 230 224 225 221 215 217 220 221 226 226 234 236 245 247 264 275 273 283 286 289 279 282 271 263 244 256 247 234 234 233 229
256 258 259 261 262 261 251 242 240 243 248 235 237 238 234 233 224 219 213 216 220 223 226 231 235 244 250 257 261 263 273 275 283 283 288 285 276 264 255 248 240 234 232 230 225
254 255 257 258 256 248 244 243 246 244 244 234 235 234 228 227 228 218 214 216 219 228 231 237 237 242 248 256 256 263 268 276 281 277 281 275 279 279 277 294 236 238 238 232 228
251 253 255 256 245 245 240 246 245 244 247 231 235 236 225 229 235 227 218 220 230 233 234 241 245 251 250 249 256 261 266 275 270 275 277 282 276 266 273 305 251 242 243 239 233
248 250 251 248 245 241 242 245 241 240 248 234 226 232 227 221 227 221 221 222 230 229 237 239 243 246 246 247 252 261 269 276 274 274 280 276 278 295 265 266 276 234 249 244 236
246 247 249 240 240 240 240 240 236 235 241 234 229 227 224 223 228 216 220 226 233 237 236 244 246 243 249 252 255 266 267 264 265 266 267 272 273 280 284 277 258 250 261 255 248
244 244 243 240 236 237 236 231 232 230 235 233 230 224 223 221 223 224 222 221 225 226 232 237 239 242 247 250 250 256 255 261 258 255 264 272 266 276 284 292 281 274 269 265 262
242 242 238 236 235 234 229 227 231 239 230 241 235 226 226 223 225 225 225 228 227 228 239 237 238 237 234 243 247 240 248 251 260 267 274 264 267 278 284 280 283 274 273 268 262
241 237 235 234 230 228 226 228 231 234 238 231 229 230 225 225 235 225 230 231 229 229 237 246 242 245 234 240 241 248 250 259 272 273 273 272 282 282 270 268 281 273 266 269 261
235 234 233 228 226 225 228 232 232 233 235 235 234 230 230 224 226 227 226 235 237 230 235 243 252 241 240 243 247 249 251 248 253 265 267 270 277 278 267 277 272 272 265 264 258
231 231 225 224 223 225 228 230 232 233 234 234 235 238 235 233 223 228 235 234 242 236 234 237 245 243 235 240 242 240 245 248 258 253 261 272 270 301 271 277 292 275 266 259 252
229 228 224 220 223 227 229 227 233 232 230 234 238 235 235 231 234 237 234 242 238 235 237 236 242 242 241 250 247 250 245 242 248 252 260 264 265 275 268 271 282 272 265 260 252
227 226 225 220 225 226 227 227 230 230 229 229 233 233 232 233 237 237 233 239 242 233 241 235 238 246 248 237 246 249 249 251 253 254 252 259 266 269 265 264 268 268 259 261 255
224 224 223 222 227 228 224 227 227 229 233 231 232 231 232 233 234 234 235 238 241 241 243 242 240 243 245 247 247 246 249 247 246 251 257 258 267 266 261 264 265 260 260 261 258
221 226 222 223 225 224 227 227 225 225 229 228 231 232 232 235 234 235 236 238 238 239 240 242 245 246 251 255 257 258 247 245 245 251 253 260 261 263 264 271 266 259 257 258 256
219 221 222 225 221 222 223 226 224 223 224 228 233 232 234 235 236 242 238 238 242 238 241 243 248 250 252 252 254 256 256 257 253 250 254 258 262 264 266 269 264 266 258 255 251
219 223 222 220 221 219 221 224 224 222 230 238 229 229 231 233 236 240 243 245 246 245 245 246 247 248 253 254 256 254 251 254 257 256 254 256 263 265 265 262 261 265 257 251 249